Regional Weather Roundup
Issued by NWS Spokane, WA

Home | Current Version | Previous Version | Text Only | Print | Product List | Glossary On
Versions: 1 2 3 4 5 6 7 8 9 10 11 12 13 14 15 16 17 18 19 20 21 22 23 24 25 26 27 28 29 30 31 32 33 34 35 36 37 38 39 40 41 42 43 44 45 46 47 48 49 50
364
NZUS01 KOTX 202325
RWROTX

Eastern Washington/Northern Idaho Roundup
National Weather Service, Spokane WA
300 PM PST TUE FEB 20 2018

Note: "fair" indicated few or no clouds below 12,000 feet with no
significant weather and/or obstructions to visibility.

...Northeast Washington and Northern Idaho Panhandle...

CITY           SKY/WX    TMP DP  RH WIND       PRES   REMARKS
Spokane Intl   CLOUDY    20   9  62 SE6       30.15S WCI  12
Spokane Downto CLOUDY    23   5  46 CALM      30.19R
Coeur d Alene  CLOUDY    23   9  55 CALM      30.17R
Deer Park      CLOUDY    19   6  57 CALM      30.18S
Sandpoint        N/A     19  10  68 S5        30.19R WCI  13
Bonners Ferry  FAIR      16   5  62 CALM      30.15S

...Southeast Washington and southern Idaho Panhandle...

CITY           SKY/WX    TMP DP  RH WIND       PRES   REMARKS
Walla Walla    CLOUDY    34  12  40 SW5       30.16S WCI  30
Pullman/Moscow CLOUDY    21  12  68 SE10      30.15S WCI  10
Lewiston       CLOUDY    28   9  44 E9        30.20F WCI  19
Lowell           N/A     28   9  44 CALM      30.23S
Grangeville    FAIR      18   9  68 NE5       30.09S WCI  11

...Columbia Basin...

CITY           SKY/WX    TMP DP  RH WIND       PRES   REMARKS
Ephrata        CLOUDY    27   9  46 N5        30.19S WCI  22
Moses Lake     CLOUDY    29  12  49 VRB3      30.20S
Pasco          CLOUDY    35  15  44 N3        30.22F
Richland       CLOUDY    35  16  46 CALM      30.23S
Hermiston      FAIR      37  15  40 N5        30.18F
Pendleton      CLOUDY    33  13  43 SE5       30.13F WCI  29

...East Slopes Cascades...

CITY           SKY/WX    TMP DP  RH WIND       PRES   REMARKS
The Dalles     LGT SNOW  31  26  82 W3        30.20F
Yakima         LGT SNOW  29  20  69 S5        30.18F WCI  24
Ellensburg     CLOUDY    27  15  61 E8        30.13S HAZE    WCI  19
Stampede Pass  SNOW      17  14  88 VRB5      29.96S VSB 1/2 WCI  10
Wenatchee      CLOUDY    24  13  62 CALM      30.20S
Omak           CLOUDY    22   9  57 N10       30.24S WCI  11
Sunnyside      CLOUDY    32  15  50 SE3       30.19S

...Southern British Columbia...

CITY           SKY/WX    TMP DP  RH WIND       PRES   REMARKS

...Western Montana...

CITY           SKY/WX    TMP DP  RH WIND       PRES   REMARKS
Kalispell      CLOUDY    12   4  70 S6        30.14R WCI   3
Missoula       CLOUDY    14  -1  51 CALM      30.12S

...Neighboring Cities...

CITY           SKY/WX    TMP DP  RH WIND       PRES   REMARKS
Seattle        CLOUDY    35  24  64 N9        30.16S WCI  28
Portland       LGT SNOW  33  31  92 SE13      30.16S FOG     WCI  24
Boise          FAIR      27   1  32 N5        30.15S WCI  22
Great Falls    FAIR       6  -4  63 SW9       30.05R WCI  -8



USA.gov is the U.S. government's official web portal to all federal, state and local government web resources and services.